User: anonymous   Login
Location: Unspecified
(0.0000°N, 0.0000°E)
Time: 08:49:38
(UTC+00:00)
Language:

CERISE - Orbit

View from above orbital plane
View from above orbital plane
View from above satellite
View from above satellite

Ground track
Ground track

The orbit data is extracted from the following two-line orbital elements,

1 23606U 95033B   18267.94373245 +.00000686 +00000-0 +69153-4 0  9996
2 23606 098.3116 239.3727 0004171 210.9957 149.1016 14.94691083255825
Epoch (UTC): 24 September 2018 22:38:58
Eccentricity: 0.0004171
inclination: 98.3116°
perigee height: 580 km
apogee height: 586 km
right ascension of ascending node: 239.3727°
argument of perigee: 210.9957°
revolutions per day: 14.94691083
mean anomaly at epoch: 149.1016°
orbit number at epoch: 25582

The dashed part of the orbit path shows where the satellite is in the earth's shadow,  

DLR